GW2652 Weather Reports


time (UTC)temp
C
wind
direction
speed
KPH
gust
KPH
rain 1hr
cm
rain 24hr
cm
rain mn
cm
humidity
%
barometer
mb
20260506212001 7 114 1.6 1.6 0.00 1.32 1.32 99 1006.0
20260506211457 7 180 1.6 3.2 0.00 1.32 1.32 99 1006.0
20260506210955 8 210 0.0 0.0 0.00 1.32 1.32 99 1005.8
20260506210451 8 160 0.0 0.0 0.13 1.32 1.32 99 1005.7
20260506205948 8 142 0.0 0.0 0.13 1.32 1.32 99 1005.9
20260506205444 8 180 1.6 1.6 0.00 1.30 1.30 99 1005.8
20260506204940 8 117 0.0 1.6 0.00 1.30 1.30 99 1005.3
20260506204438 8 117 1.6 1.6 0.00 1.30 1.30 99 1005.2
20260506203935 8 165 3.2 3.2 0.00 1.30 1.30 99 1005.1
20260506203432 8 205 1.6 1.6 0.00 1.30 1.30 99 1005.1
20260506202929 8 162 1.6 1.6 0.00 1.30 1.30 99 1005.0
20260506202427 8 116 1.6 3.2 0.00 1.30 1.30 99 1004.9
20260506201923 8 59 8.0 11.3 0.00 1.30 1.30 99 1004.7
20260506201421 8 110 3.2 4.8 0.00 1.30 1.30 99 1004.7
20260506200917 8 320 11.3 14.5 0.00 1.30 1.30 99 1004.6
20260506200413 8 101 1.6 1.6 0.18 1.30 1.30 99 1004.9
20260506195910 8 322 3.2 6.4 0.18 1.30 1.30 99 1004.8
20260506195407 8 70 6.4 9.7 0.00 1.27 1.27 99 1004.6
20260506194904 8 45 1.6 3.2 0.00 1.27 1.27 99 1004.6
20260506194401 9 293 4.8 4.8 0.00 1.27 1.27 99 1004.8
20260506193858 9 190 3.2 3.2 0.00 1.27 1.27 99 1004.6
20260506193354 9 288 6.4 9.7 0.13 1.27 1.27 99 1004.4
20260506192851 9 274 0.0 1.6 0.13 1.27 1.27 99 1004.4
20260506192348 9 143 0.0 0.0 0.00 1.24 1.24 99 1004.4
20260506191845 9 147 1.6 3.2 0.00 1.24 1.24 99 1004.3
20260506191341 9 144 1.6 3.2 0.00 1.24 1.24 99 1004.4
20260506190838 9 227 6.4 6.4 0.00 1.24 1.24 99 1004.4
20260506190334 10 64 1.6 3.2 0.00 1.24 1.24 99 1004.2
20260506185831 10 308 9.7 12.9 0.00 1.24 1.24 99 1004.2
20260506185328 10 283 4.8 4.8 0.00 1.24 1.24 99 1004.2
20260506184825 10 154 0.0 0.0 0.00 1.24 1.24 99 1004.2
20260506184322 10 179 6.4 6.4 0.00 1.24 1.24 99 1004.1
20260506183820 10 281 0.0 1.6 0.00 1.24 1.24 99 1003.9
20260506183315 10 74 4.8 11.3 0.00 1.24 1.24 99 1003.8
20260506182813 10 147 3.2 4.8 0.00 1.24 1.24 99 1003.9
20260506182309 11 107 3.2 4.8 0.18 1.24 1.24 99 1003.8
20260506181801 11 294 4.8 9.7 0.18 1.24 1.24 99 1003.8
20260506181259 12 62 6.4 11.3 0.00 1.22 1.22 99 1003.8
20260506180756 13 264 1.6 1.6 0.00 1.22 1.22 99 1003.6
20260506180252 13 326 6.4 9.7 0.00 1.22 1.22 99 1003.5
20260506175748 13 197 1.6 1.6 0.00 1.22 1.22 99 1003.3
20260506175245 13 250 3.2 3.2 0.00 1.22 1.22 99 1003.5
20260506174743 13 202 1.6 3.2 0.00 1.22 1.22 99 1003.3
20260506174239 13 168 4.8 6.4 0.00 1.22 1.22 99 1003.2
20260506173737 13 285 3.2 3.2 0.00 1.22 1.22 99 1003.4
20260506173234 13 324 1.6 3.2 0.00 1.22 1.22 99 1003.3
20260506172731 13 277 3.2 4.8 0.00 1.22 1.22 99 1003.5
20260506172227 13 180 0.0 1.6 0.00 1.22 1.22 99 1003.3
20260506171725 13 176 1.6 3.2 0.00 1.22 1.22 99 1003.2
20260506171222 13 205 3.2 4.8 0.00 1.22 1.22 99 1003.7
20260506170720 13 184 0.0 1.6 0.00 1.22 1.22 99 1003.7
20260506170216 13 185 1.6 1.6 0.13 1.22 1.22 99 1003.9
20260506165715 13 257 6.4 6.4 0.13 1.22 1.22 99 1003.7
20260506165211 13 165 1.6 1.6 0.00 1.19 1.19 99 1003.6
20260506164708 13 227 6.4 9.7 0.18 1.19 1.19 99 1003.7
20260506164205 13 173 1.6 3.2 0.18 1.19 1.19 99 1003.8
20260506163702 13 213 0.0 1.6 0.00 1.17 1.17 99 1003.6
20260506163157 13 335 4.8 4.8 0.00 1.17 1.17 99 1003.6
20260506162653 13 148 0.0 1.6 0.00 1.17 1.17 99 1003.5
20260506162151 13 143 1.6 1.6 0.00 1.17 1.17 99 1003.6
20260506161648 13 253 3.2 3.2 0.00 1.17 1.17 99 1003.9
20260506161144 13 143 0.0 0.0 0.13 1.17 1.17 99 1003.8
20260506160642 13 142 0.0 0.0 0.13 1.17 1.17 99 1004.0
20260506160139 13 194 1.6 3.2 0.00 1.14 1.14 99 1003.8
20260506155637 13 201 3.2 4.8 0.00 1.14 1.14 99 1003.9
20260506155134 13 151 3.2 3.2 0.18 1.14 1.14 99 1004.0
20260506153236 12 194 0.0 1.6 0.13 1.09 1.09 99 1004.3
20260506152733 12 121 1.6 1.6 0.18 1.07 1.07 99 1004.1
20260506152230 12 171 0.0 0.0 0.30 1.07 1.07 99 1004.2
20260506151730 12 171 1.6 3.2 0.13 1.04 1.04 99 1004.0
20260506151225 12 70 1.6 3.2 0.13 1.04 1.04 99 1004.0
20260506150722 13 215 3.2 3.2 0.18 1.02 1.02 99 1004.0
20260506150219 12 147 0.0 0.0 0.18 1.02 1.02 99 1004.1
20260506145717 12 164 0.0 1.6 0.13 0.99 0.99 99 1003.8
20260506145213 12 130 0.0 0.0 0.13 0.99 0.99 99 1004.0
20260506144710 12 130 0.0 0.0 0.00 0.97 0.97 99 1004.2
20260506144207 12 210 0.0 0.0 0.00 0.97 0.97 99 1003.7
20260506143705 12 134 0.0 0.0 0.18 0.97 0.97 99 1004.1
20260506143202 12 134 0.0 1.6 0.18 0.97 0.97 99 1003.9
20260506142701 12 130 0.0 0.0 0.00 0.94 0.94 99 1004.0
20260506142158 12 130 1.6 1.6 0.00 0.94 0.94 99 1004.0
20260506141656 12 130 1.6 1.6 0.13 0.94 0.94 99 1004.1
20260506141154 12 132 0.0 0.0 0.30 0.94 0.94 99 1004.1
20260506140651 12 132 0.0 0.0 0.30 0.91 0.91 99 1004.1
20260506140148 12 131 0.0 0.0 0.30 0.89 0.89 99 1004.2
20260506135645 12 131 1.6 3.2 0.30 0.86 0.86 99 1004.4
20260506135141 12 129 0.0 1.6 0.30 0.84 0.84 99 1004.3
20260506134638 12 134 0.0 0.0 0.36 0.81 0.81 99 1004.5
20260506134134 12 134 0.0 0.0 0.30 0.79 0.79 99 1004.6
20260506133631 12 135 0.0 0.0 0.43 0.76 0.76 99 1004.7
20260506133128 12 151 0.0 0.0 0.48 0.74 0.74 99 1004.9
20260506132626 12 152 0.0 1.6 0.61 0.71 0.71 99 1004.8
20260506132122 11 147 1.6 1.6 0.61 0.66 0.66 99 1005.0
20260506131620 11 150 0.0 0.0 0.71 0.61 0.61 99 1005.1
20260506131116 11 150 1.6 1.6 0.79 0.56 0.56 99 1005.2
20260506130613 11 150 0.0 0.0 0.48 0.48 0.48 99 1005.2
20260506130110 11 102 0.0 0.0 0.30 0.43 0.43 99 1005.1
20260506125609 11 211 0.0 1.6 0.30 0.41 0.41 99 1005.1
20260506125106 11 211 0.0 1.6 0.30 0.38 0.38 99 1004.6
20260506124603 11 211 1.6 3.2 0.18 0.36 0.36 99 1004.7
20260506124101 11 211 1.6 3.2 0.13 0.33 0.33 99 1004.8
20260506123559 11 211 0.0 0.0 0.13 0.33 0.33 99 1004.8
20260506123057 11 211 0.0 0.0 0.00 0.30 0.30 99 1004.6
20260506122553 11 211 0.0 0.0 0.18 0.30 0.30 99 1004.6
20260506122051 11 211 0.0 1.6 0.18 0.30 0.30 99 1004.7
20260506121549 10 211 0.0 0.0 0.18 0.30 0.30 99 1004.7
20260506121044 10 211 0.0 0.0 0.00 0.28 0.28 99 1004.7
20260506120543 10 211 0.0 0.0 0.00 0.28 0.28 99 1004.8
20260506120040 10 211 0.0 0.0 0.00 0.28 0.28 99 1004.8
20260506115538 10 211 0.0 0.0 0.00 0.28 0.28 99 1004.7
20260506115036 10 211 0.0 0.0 0.13 0.28 0.28 99 1005.0
20260506114533 10 211 0.0 0.0 0.13 0.28 0.28 99 1004.8
20260506114032 10 211 0.0 0.0 0.00 0.25 0.25 99 1005.1
20260506113529 10 211 0.0 0.0 0.18 0.25 0.25 99 1005.1
20260506113026 10 211 0.0 0.0 0.18 0.25 0.25 99 1005.1
20260506112522 10 211 0.0 0.0 0.00 0.23 0.23 99 1005.1
20260506112020 10 211 0.0 0.0 0.00 0.23 0.23 99 1004.9
20260506111518 10 211 0.0 0.0 0.13 0.23 0.23 99 1005.1
20260506111015 10 211 0.0 0.0 0.13 0.23 0.23 99 1005.2
20260506110513 10 211 0.0 0.0 0.00 0.20 0.20 99 1005.3
20260506110010 10 211 0.0 0.0 0.18 0.20 0.20 99 1005.4
20260506105505 10 211 0.0 0.0 0.30 0.20 0.20 99 1005.2
20260506105003 10 211 0.0 0.0 0.13 0.18 0.18 99 1005.4
20260506104501 10 211 0.0 0.0 0.18 0.15 0.15 99 1005.3
20260506103959 10 211 0.0 0.0 0.36 0.15 0.15 99 1005.1
20260506103455 10 211 0.0 0.0 0.30 0.13 0.13 99 1005.0
20260506102952 10 211 0.0 0.0 0.13 0.10 0.10 99 1004.9
20260506102450 10 211 0.0 0.0 0.18 0.08 0.08 99 1004.9
20260506101947 10 211 0.0 0.0 0.18 0.08 0.08 99 1004.9
20260506101444 10 211 0.0 0.0 0.13 0.05 0.05 99 1005.1
20260506100941 9 211 0.0 0.0 0.13 0.05 0.05 99 1005.0
20260506100439 9 211 0.0 0.0 0.00 0.03 0.03 99 1004.7
20260506095937 9 211 0.0 0.0 0.00 0.03 0.03 99 1004.7
20260506095436 10 211 0.0 0.0 0.00 0.03 0.03 99 1004.8
20260506094931 10 211 0.0 0.0 0.00 0.03 0.03 99 1004.6
20260506094430 10 211 0.0 0.0 0.00 0.03 0.03 99 1004.6
20260506093927 9 211 0.0 0.0 0.00 0.03 0.03 99 1004.8
20260506093425 9 211 0.0 0.0 0.18 0.03 0.03 99 1004.9
20260506092923 9 211 0.0 0.0 0.18 0.03 0.03 99 1005.1
20260506092420 9 211 0.0 0.0 0.00 0.00 0.00 99 1004.7
20260506091916 9 211 0.0 0.0 0.00 0.00 0.00 99 1004.9
20260506091415 9 211 0.0 0.0 0.00 0.00 0.00 99 1004.9
20260506090912 9 211 0.0 0.0 0.00 0.00 0.00 99 1004.8
20260506090409 9 211 0.0 0.0 0.00 0.00 0.00 99 1004.9
20260506085906 9 211 1.6 1.6 0.00 0.00 0.00 99 1005.1
20260506085403 9 211 0.0 0.0 0.00 0.00 0.00 99 1004.9
20260506084859 9 211 0.0 0.0 0.00 0.00 0.00 99 1005.1
20260506084355 9 211 0.0 0.0 0.00 0.00 0.00 99 1005.1
20260506083852 9 211 0.0 0.0 0.00 0.00 0.00 99 1005.0
20260506083350 9 212 0.0 0.0 0.00 0.00 0.00 99 1004.8
20260506082847 9 212 0.0 0.0 0.00 0.00 0.00 99 1004.8
20260506082344 9 212 1.6 1.6 0.00 0.00 0.00 99 1004.9
20260506081839 9 212 0.0 0.0 0.00 0.00 0.00 99 1004.8
20260506081338 9 131 0.0 0.0 0.00 0.00 0.00 99 1004.8
20260506080835 9 131 0.0 0.0 0.00 0.00 0.00 99 1004.8
20260506080331 9 131 0.0 0.0 0.00 0.00 0.00 99 1005.0
20260506073316 9 132 0.0 0.0 0.00 0.00 0.00 99 1005.0
20260506072812 9 132 0.0 0.0 0.00 0.00 0.00 99 1005.1
20260506072310 9 132 0.0 0.0 0.00 0.00 0.00 99 1005.0
20260506071808 9 132 0.0 1.6 0.00 0.00 0.00 99 1005.2
20260506071306 9 128 0.0 1.6 0.00 0.00 0.00 99 1005.3
20260506070802 9 150 0.0 0.0 0.00 0.00 0.00 99 1005.2
20260506070259 9 150 0.0 0.0 0.00 0.00 0.00 99 1005.7
20260506062236 9 167 0.0 0.0 0.00 0.00 0.00 99 1005.9
20260506061732 9 167 1.6 1.6 0.00 0.00 0.00 99 1006.2
20260506061230 9 174 0.0 0.0 0.00 0.00 0.00 99 1006.4
20260506060728 9 134 0.0 0.0 0.00 0.00 0.00 99 1006.2
20260506060225 9 135 0.0 0.0 0.00 0.00 0.00 99 1006.5
20260506051151 9 104 1.6 1.6 0.00 0.00 0.00 99 1007.3
20260506050649 9 131 0.0 0.0 0.00 0.00 0.00 99 1007.4
20260506050146 9 131 0.0 0.0 0.00 0.00 0.00 99 1007.2
20260506044637 10 131 0.0 0.0 0.00 0.00 0.00 99 1007.1
20260506044134 10 131 0.0 0.0 0.00 0.00 0.00 99 1007.1
20260506043631 10 131 0.0 0.0 0.00 0.00 0.00 99 1007.1
20260506043129 10 131 0.0 0.0 0.00 0.00 0.00 99 1007.2
20260506042628 10 131 0.0 0.0 0.00 0.00 0.00 99 1007.3
20260506042125 10 131 0.0 0.0 0.00 0.00 0.00 99 1007.5
20260506041624 10 131 0.0 0.0 0.00 0.00 0.00 99 1007.4
20260506041120 10 131 0.0 0.0 0.00 0.00 0.00 99 1007.4
20260506040618 10 131 0.0 0.0 0.00 0.00 0.00 99 1007.5
20260506040115 10 131 0.0 0.0 0.00 0.56 0.56 99 1007.6
20260506035611 10 131 0.0 0.0 0.00 0.56 0.56 99 1007.7
20260506035108 10 131 0.0 0.0 0.00 0.56 0.56 99 1007.6
20260506034605 10 131 0.0 0.0 0.00 0.56 0.56 99 1007.5
20260506034102 10 131 0.0 0.0 0.00 0.56 0.56 98 1007.3
20260506033559 10 131 0.0 0.0 0.00 0.56 0.56 98 1007.5
20260506033056 11 131 0.0 0.0 0.00 0.56 0.56 97 1007.7
20260506032554 11 131 0.0 0.0 0.00 0.56 0.56 97 1007.4
20260506032050 11 131 0.0 0.0 0.00 0.56 0.56 95 1007.5
20260506031548 11 130 0.0 1.6 0.00 0.56 0.56 96 1007.6
20260506031044 11 151 0.0 0.0 0.00 0.56 0.56 97 1007.5
20260506030543 11 152 0.0 0.0 0.00 0.56 0.56 97 1007.7
20260506030040 11 151 0.0 0.0 0.00 0.56 0.56 95 1007.5
20260506025537 12 129 0.0 0.0 0.00 0.56 0.56 95 1007.6
20260506025033 12 73 1.6 1.6 0.00 0.56 0.56 96 1007.7
20260506024530 12 72 1.6 1.6 0.00 0.56 0.56 96 1007.8
20260506024026 12 71 1.6 1.6 0.00 0.56 0.56 97 1007.8
20260506023522 12 139 1.6 3.2 0.00 0.56 0.56 97 1007.9
20260506023020 12 97 3.2 3.2 0.00 0.56 0.56 98 1007.5
20260506022517 12 125 3.2 4.8 0.00 0.56 0.56 99 1007.6
20260506022015 12 100 0.0 1.6 0.00 0.56 0.56 99 1007.3
20260506021512 12 100 0.0 1.6 0.00 0.56 0.56 99 1007.3
20260506021009 12 116 3.2 4.8 0.00 0.56 0.56 99 1007.2
20260506020507 13 134 0.0 1.6 0.00 0.56 0.56 99 1007.2
20260506020004 13 119 1.6 3.2 0.00 0.56 0.56 99 1007.2
20260506015501 13 119 0.0 0.0 0.00 0.56 0.56 99 1007.0
20260506014958 13 119 0.0 0.0 0.00 0.56 0.56 99 1006.9
20260506014455 13 119 0.0 0.0 0.00 0.56 0.56 99 1006.7
20260506013951 13 119 0.0 0.0 0.00 0.56 0.56 99 1006.8
20260506013449 13 119 0.0 0.0 0.00 0.56 0.56 99 1007.1
20260506012945 13 119 0.0 0.0 0.00 0.56 0.56 99 1007.0
20260506012442 13 119 0.0 0.0 0.00 0.56 0.56 99 1007.0
20260506011939 13 119 0.0 0.0 0.00 0.56 0.56 99 1006.6
20260506011436 13 117 1.6 1.6 0.00 0.56 0.56 99 1006.6
20260506010933 13 117 0.0 0.0 0.00 0.56 0.56 99 1006.5
20260506010432 13 114 0.0 1.6 0.00 0.56 0.56 99 1006.8
20260506005928 13 216 0.0 0.0 0.00 0.56 0.56 99 1006.5
20260506005426 13 111 0.0 0.0 0.00 0.56 0.56 99 1006.2
20260506004921 13 111 0.0 0.0 0.00 0.56 0.56 99 1006.4
20260506004419 13 160 0.0 0.0 0.00 0.56 0.56 99 1006.0
20260506003915 13 160 0.0 0.0 0.00 0.56 0.56 99 1006.0
20260506003411 13 160 0.0 0.0 0.00 0.56 0.56 99 1005.7
20260506002908 13 160 0.0 0.0 0.00 0.56 0.56 99 1005.8
20260506002404 13 160 0.0 0.0 0.00 0.56 0.56 99 1005.8
20260506001859 13 160 0.0 0.0 0.00 0.56 0.56 99 1005.8
20260506001356 13 160 0.0 0.0 0.00 0.56 0.56 99 1005.7
20260506000854 13 160 0.0 0.0 0.00 0.56 0.56 99 1005.6
20260506000354 14 160 0.0 0.0 0.00 0.56 0.56 99 1005.6
20260505235848 14 160 0.0 0.0 0.00 0.56 0.56 99 1005.4
20260505235346 14 160 0.0 0.0 0.00 0.56 0.56 99 1005.6
20260505234842 15 160 0.0 0.0 0.00 0.56 0.56 99 1005.4
20260505234340 15 160 0.0 0.0 0.00 0.56 0.56 99 1005.6
20260505233837 15 160 0.0 0.0 0.00 0.56 0.56 99 1005.7
20260505233335 15 160 0.0 0.0 0.00 0.56 0.56 99 1005.2
20260505232832 15 160 0.0 0.0 0.00 0.56 0.56 99 1005.4
20260505232330 15 161 0.0 0.0 0.00 0.56 0.56 99 1005.6
20260505231826 15 161 0.0 0.0 0.00 0.56 0.56 99 1005.7
20260505231324 15 161 0.0 0.0 0.00 0.56 0.56 99 1005.2
20260505230822 15 160 1.6 1.6 0.00 0.56 0.56 99 1005.4
20260505230319 15 159 0.0 0.0 0.13 0.56 0.56 99 1005.2
20260505225815 15 159 0.0 0.0 0.13 0.56 0.56 99 1005.2
20260505225313 15 161 0.0 0.0 0.00 0.53 0.53 99 1005.8
20260505224808 15 161 0.0 0.0 0.00 0.53 0.53 99 1005.9
20260505224306 15 161 0.0 0.0 0.00 0.53 0.53 98 1005.7
20260505223803 16 161 0.0 0.0 0.00 0.53 0.53 97 1005.4
20260505223300 16 161 0.0 0.0 0.00 0.53 0.53 96 1004.9
20260505222755 16 161 0.0 0.0 0.00 0.53 0.53 97 1005.1
20260505222252 16 161 0.0 1.6 0.00 0.53 0.53 96 1005.3
20260505221749 16 161 0.0 0.0 0.00 0.53 0.53 95 1005.1
20260505221245 16 161 0.0 0.0 0.00 0.53 0.53 96 1005.0
20260505220742 16 138 0.0 0.0 0.00 0.53 0.53 94 1004.8
20260505220239 16 138 1.6 1.6 0.00 0.53 0.53 94 1004.7
20260505215738 16 113 1.6 1.6 0.00 0.53 0.53 93 1004.7
20260505215235 17 136 4.8 4.8 0.00 0.53 0.53 93 1004.5
20260505214733 17 132 3.2 3.2 0.00 0.53 0.53 93 1004.7
20260505214230 17 132 3.2 3.2 0.00 0.53 0.53 96 1004.7
20260505213727 17 141 4.8 4.8 0.00 0.53 0.53 93 1004.5
20260505213224 17 133 3.2 4.8 0.00 0.53 0.53 94 1005.0
20260505212720 16 153 0.0 0.0 0.00 0.53 0.53 95 1004.8